Total_Precipitation_Accumulation
0.02 0.07 0.14 0.19 0.34 0.14 0.01 0.00 0.00 0.00 0.00 0.00 0.00 0.00 0.00 0.01 0.09 0.30 0.09 0.04 0.02 0.00 0.00 0.03 0.05 0.05 0.05 0.04 0.03 0.05 0.07 0.06 0.05 0.08 0.06 0.07 0.05 0.04 0.05 0.05 0.06 0.06 0.07 0.10 0.16 0.26 0.31 0.31 0.40
0.05 0.14 0.18 0.26 0.19 0.02 0.02 0.01 0.00 0.00 0.00 0.00 0.00 0.00 0.00 0.00 0.01 0.03 0.07 0.10 0.02 0.00 0.00 0.01 0.03 0.07 0.09 0.06 0.05 0.07 0.08 0.06 0.06 0.08 0.07 0.07 0.05 0.04 0.04 0.04 0.04 0.05 0.06 0.07 0.12 0.23 0.31 0.34 0.36
0.10 0.15 0.21 0.22 0.05 0.01 0.02 0.01 0.01 0.01 0.00 0.00 0.00 0.00 0.00 0.01 0.01 0.03 0.06 0.06 0.02 0.01 0.01 0.04 0.07 0.14 0.17 0.11 0.11 0.14 0.11 0.09 0.08 0.07 0.07 0.09 0.06 0.07 0.04 0.02 0.04 0.04 0.06 0.07 0.09 0.16 0.26 0.32 0.34
0.08 0.17 0.21 0.11 0.03 0.03 0.03 0.02 0.02 0.01 0.02 0.00 0.00 0.00 0.01 0.02 0.03 0.04 0.05 0.05 0.02 0.03 0.05 0.09 0.13 0.20 0.23 0.13 0.15 0.22 0.16 0.13 0.09 0.05 0.06 0.08 0.06 0.06 0.02 0.02 0.05 0.04 0.04 0.06 0.07 0.13 0.20 0.26 0.32
0.07 0.14 0.13 0.08 0.07 0.08 0.07 0.05 0.03 0.03 0.05 0.01 0.00 0.01 0.02 0.03 0.04 0.05 0.08 0.06 0.05 0.05 0.06 0.10 0.18 0.20 0.21 0.18 0.23 0.32 0.25 0.19 0.10 0.06 0.06 0.06 0.05 0.05 0.03 0.04 0.03 0.03 0.03 0.03 0.04 0.07 0.11 0.16 0.22
0.10 0.21 0.19 0.16 0.17 0.18 0.17 0.10 0.06 0.05 0.04 0.02 0.01 0.02 0.04 0.06 0.08 0.10 0.11 0.12 0.12 0.10 0.09 0.14 0.19 0.18 0.20 0.22 0.28 0.36 0.36 0.25 0.12 0.06 0.07 0.05 0.05 0.04 0.04 0.05 0.04 0.03 0.01 0.01 0.02 0.04 0.06 0.07 0.10
0.08 0.20 0.22 0.17 0.19 0.32 0.23 0.10 0.06 0.06 0.04 0.06 0.05 0.06 0.09 0.09 0.12 0.14 0.19 0.26 0.27 0.26 0.22 0.25 0.24 0.23 0.26 0.32 0.31 0.43 0.53 0.36 0.18 0.11 0.10 0.08 0.05 0.04 0.04 0.03 0.02 0.01 0.01 0.00 0.01 0.02 0.03 0.04 0.05
0.03 0.08 0.17 0.24 0.29 0.42 0.25 0.07 0.06 0.05 0.04 0.07 0.07 0.10 0.20 0.20 0.18 0.20 0.24 0.27 0.26 0.28 0.28 0.29 0.32 0.34 0.39 0.43 0.51 0.57 0.81 0.69 0.33 0.20 0.14 0.11 0.06 0.05 0.04 0.02 0.01 0.01 0.01 0.00 0.00 0.00 0.01 0.02 0.04
0.03 0.09 0.31 0.56 0.53 0.40 0.22 0.10 0.09 0.09 0.07 0.07 0.09 0.15 0.20 0.21 0.23 0.22 0.25 0.25 0.24 0.21 0.24 0.29 0.34 0.36 0.38 0.42 0.57 0.72 0.89 0.91 0.58 0.36 0.22 0.13 0.10 0.16 0.13 0.05 0.02 0.01 0.00 0.00 0.00 0.01 0.01 0.02 0.03
0.04 0.13 0.35 0.58 0.46 0.23 0.17 0.14 0.12 0.13 0.11 0.10 0.13 0.18 0.20 0.22 0.29 0.32 0.34 0.39 0.37 0.34 0.30 0.31 0.33 0.35 0.35 0.34 0.52 0.68 0.70 0.83 0.59 0.60 0.49 0.34 0.37 0.37 0.21 0.13 0.09 0.05 0.01 0.00 0.00 0.00 0.01 0.01 0.01
0.05 0.10 0.17 0.26 0.22 0.11 0.09 0.10 0.10 0.10 0.11 0.10 0.12 0.19 0.26 0.30 0.35 0.38 0.40 0.43 0.45 0.46 0.42 0.34 0.34 0.35 0.37 0.44 0.56 0.71 0.78 0.82 0.81 0.79 0.72 0.72 0.65 0.38 0.20 0.23 0.20 0.11 0.05 0.01 0.00 0.00 0.00 0.00 0.00
0.07 0.07 0.07 0.10 0.10 0.10 0.08 0.06 0.06 0.06 0.06 0.06 0.09 0.15 0.24 0.32 0.34 0.34 0.37 0.40 0.42 0.46 0.52 0.45 0.33 0.32 0.32 0.38 0.53 0.69 0.81 0.90 0.87 0.68 0.60 0.67 0.67 0.45 0.27 0.30 0.29 0.20 0.11 0.04 0.01 0.00 0.00 0.00 0.00
0.07 0.09 0.08 0.08 0.09 0.11 0.08 0.06 0.06 0.07 0.06 0.06 0.11 0.19 0.29 0.38 0.40 0.40 0.36 0.39 0.39 0.45 0.52 0.55 0.46 0.38 0.36 0.40 0.47 0.53 0.80 0.94 1.02 0.96 0.67 0.73 0.66 0.51 0.37 0.28 0.30 0.25 0.19 0.10 0.03 0.01 0.01 0.01 0.01
0.06 0.09 0.08 0.10 0.10 0.11 0.10 0.09 0.10 0.10 0.10 0.09 0.12 0.21 0.30 0.38 0.43 0.44 0.41 0.38 0.36 0.40 0.46 0.51 0.54 0.53 0.49 0.48 0.50 0.48 0.53 0.64 0.73 0.64 0.52 0.63 0.68 0.55 0.46 0.34 0.31 0.33 0.30 0.25 0.14 0.06 0.04 0.03 0.02
0.03 0.06 0.09 0.10 0.10 0.11 0.13 0.14 0.13 0.12 0.13 0.14 0.12 0.17 0.23 0.30 0.33 0.37 0.37 0.35 0.34 0.39 0.42 0.46 0.53 0.60 0.62 0.62 0.70 0.62 0.58 0.63 0.61 0.55 0.54 0.56 0.60 0.59 0.61 0.52 0.40 0.34 0.39 0.40 0.29 0.19 0.13 0.06 0.03
0.03 0.09 0.17 0.13 0.15 0.20 0.22 0.18 0.11 0.13 0.11 0.11 0.09 0.11 0.16 0.20 0.25 0.29 0.33 0.35 0.35 0.37 0.37 0.39 0.43 0.48 0.53 0.60 0.67 0.72 0.72 0.74 0.70 0.71 0.64 0.58 0.66 0.74 0.78 0.72 0.56 0.45 0.50 0.51 0.43 0.32 0.23 0.11 0.05
0.04 0.08 0.13 0.11 0.12 0.14 0.13 0.12 0.09 0.08 0.07 0.06 0.05 0.05 0.07 0.10 0.16 0.20 0.24 0.30 0.34 0.35 0.32 0.31 0.32 0.32 0.35 0.42 0.53 0.65 0.71 0.78 0.83 0.83 0.79 0.76 0.78 0.78 0.84 0.89 0.84 0.76 0.72 0.67 0.57 0.40 0.28 0.17 0.09
0.03 0.03 0.03 0.05 0.06 0.07 0.08 0.10 0.09 0.05 0.03 0.02 0.03 0.03 0.03 0.03 0.06 0.10 0.15 0.23 0.27 0.29 0.30 0.30 0.31 0.30 0.26 0.30 0.43 0.53 0.58 0.65 0.80 0.86 0.91 1.17 1.25 1.05 0.95 0.97 0.92 0.88 0.87 0.81 0.78 0.67 0.45 0.28 0.17
0.02 0.02 0.01 0.02 0.02 0.02 0.02 0.03 0.04 0.02 0.01 0.01 0.01 0.01 0.02 0.01 0.01 0.02 0.03 0.08 0.14 0.15 0.14 0.18 0.24 0.30 0.28 0.24 0.30 0.41 0.49 0.61 0.72 0.88 0.96 1.18 1.26 1.17 1.17 1.14 1.07 0.98 0.92 0.91 0.97 0.99 0.74 0.50 0.30
0.02 0.01 0.01 0.01 0.01 0.01 0.01 0.01 0.03 0.02 0.02 0.01 0.01 0.01 0.01 0.01 0.01 0.01 0.01 0.02 0.02 0.05 0.07 0.10 0.15 0.23 0.31 0.33 0.38 0.51 0.68 0.79 0.86 0.99 1.05 1.18 1.16 1.13 1.07 1.18 1.25 1.16 1.15 1.18 1.23 1.23 1.11 0.79 0.48
0.00 0.00 0.00 0.00 0.00 0.00 0.00 0.01 0.02 0.03 0.03 0.02 0.02 0.03 0.03 0.03 0.02 0.02 0.01 0.02 0.02 0.03 0.05 0.11 0.19 0.32 0.49 0.64 0.84 1.09 1.36 1.47 1.36 1.21 1.27 1.41 1.47 1.40 1.31 1.36 1.46 1.34 1.32 1.31 1.30 1.25 1.36 1.26 0.92
0.00 0.00 0.00 0.01 0.01 0.00 0.00 0.01 0.02 0.05 0.06 0.07 0.08 0.09 0.09 0.07 0.06 0.06 0.04 0.05 0.07 0.11 0.17 0.28 0.40 0.57 0.73 0.93 1.15 1.39 1.62 1.78 1.80 1.82 1.85 1.81 1.76 1.63 1.51 1.48 1.49 1.47 1.48 1.37 1.26 1.29 1.46 1.66 1.49
0.00 0.00 0.00 0.00 0.01 0.01 0.00 0.01 0.05 0.11 0.17 0.22 0.25 0.25 0.23 0.19 0.19 0.18 0.16 0.15 0.18 0.28 0.41 0.53 0.76 0.92 1.06 1.12 1.22 1.43 1.54 1.61 1.72 1.87 1.91 1.88 1.77 1.65 1.52 1.45 1.44 1.46 1.51 1.47 1.47 1.54 1.67 1.79 1.86
0.00 0.00 0.00 0.00 0.01 0.01 0.00 0.05 0.14 0.24 0.32 0.40 0.40 0.36 0.33 0.26 0.23 0.26 0.29 0.30 0.35 0.57 0.81 0.96 1.06 1.16 1.15 1.13 1.15 1.29 1.43 1.51 1.59 1.72 1.77 1.70 1.54 1.47 1.45 1.43 1.36 1.28 1.32 1.40 1.53 1.71 1.74 1.78 1.88
0.00 0.00 0.01 0.01 0.02 0.03 0.03 0.12 0.26 0.28 0.27 0.31 0.34 0.33 0.29 0.22 0.19 0.23 0.33 0.45 0.65 0.90 1.14 1.28 1.28 1.18 1.04 1.02 1.09 1.15 1.29 1.43 1.46 1.46 1.48 1.43 1.34 1.29 1.29 1.30 1.24 1.12 1.09 1.18 1.34 1.50 1.51 1.53 1.57
0.00 0.00 0.03 0.04 0.03 0.06 0.11 0.27 0.38 0.30 0.21 0.17 0.18 0.18 0.20 0.24 0.30 0.32 0.38 0.57 0.85 1.12 1.37 1.64 1.62 1.38 1.16 1.10 1.17 1.18 1.26 1.32 1.29 1.23 1.23 1.23 1.17 1.12 1.04 1.06 1.06 1.03 1.00 1.01 1.07 1.13 1.16 1.21 1.31
0.00 0.01 0.03 0.08 0.05 0.06 0.12 0.27 0.29 0.20 0.15 0.13 0.15 0.18 0.24 0.31 0.41 0.49 0.61 0.71 0.91 1.14 1.47 1.76 1.82 1.61 1.46 1.37 1.31 1.31 1.21 1.12 1.03 0.95 0.94 0.94 0.94 0.88 0.83 0.90 0.96 1.02 0.92 0.84 0.87 0.87 0.90 0.98 1.04
0.01 0.02 0.05 0.13 0.13 0.12 0.15 0.24 0.20 0.11 0.10 0.13 0.19 0.24 0.29 0.37 0.43 0.58 0.84 1.05 1.27 1.23 1.37 1.60 1.54 1.48 1.45 1.47 1.46 1.35 1.20 1.06 1.02 0.94 0.90 0.84 0.88 0.82 0.82 0.85 0.83 0.81 0.77 0.78 0.82 0.85 0.89 0.87 0.88
0.03 0.05 0.06 0.12 0.17 0.20 0.28 0.34 0.22 0.18 0.20 0.26 0.32 0.35 0.38 0.46 0.51 0.65 0.82 0.97 1.16 1.27 1.29 1.33 1.32 1.33 1.29 1.22 1.18 1.06 0.86 0.75 0.75 0.77 0.72 0.65 0.68 0.65 0.67 0.64 0.66 0.73 0.71 0.68 0.74 0.75 0.73 0.75 0.79
0.10 0.12 0.12 0.20 0.26 0.31 0.45 0.50 0.33 0.33 0.38 0.45 0.52 0.54 0.58 0.59 0.62 0.72 0.80 0.95 1.04 1.05 1.09 1.17 1.10 1.09 1.04 0.93 0.84 0.72 0.57 0.51 0.56 0.57 0.52 0.44 0.46 0.44 0.51 0.54 0.52 0.63 0.76 0.78 0.77 0.73 0.66 0.62 0.60